This is the latest recevied weather packets stored in our database for station/object KC5EZZ-2. If no packets are shown the sender has not sent any weather packets the latest 10 day(s).
| Time | Temp. | Humidity | Pressure | Rain* | Wind** | Luminosity | Snow |
|---|---|---|---|---|---|---|---|
| 1778180075 | 17.78° C | - | - | 0 mm | 4.02 m/s, 128° | - | - |
| 1778179773 | 18.33° C | - | - | 0 mm | 4.47 m/s, 73° | - | - |
| 1778179473 | 17.78° C | - | - | 0 mm | 4.47 m/s, 59° | - | - |
| 1778179174 | 17.78° C | - | - | 0 mm | 4.47 m/s, 42° | - | - |
| 1778178871 | 17.78° C | - | - | 0 mm | 4.02 m/s, 38° | - | - |
| 1778178572 | 17.78° C | - | - | 0 mm | 4.02 m/s, 39° | - | - |
| 1778178272 | 17.78° C | - | - | 0 mm | 5.36 m/s, 56° | - | - |
| 1778177970 | 17.78° C | - | - | 0 mm | 4.02 m/s, 48° | - | - |
| 1778177670 | 17.78° C | - | - | 0 mm | 4.02 m/s, 100° | - | - |
| 1778177371 | 17.78° C | - | - | 0 mm | 6.26 m/s, 82° | - | - |
| 1778177068 | 17.78° C | - | - | 0 mm | 5.81 m/s, 62° | - | - |
| 1778176769 | 17.22° C | - | - | 0 mm | 5.36 m/s, 55° | - | - |
| 1778176469 | 17.22° C | - | - | 0 mm | 4.92 m/s, 21° | - | - |
| 1778176167 | 17.78° C | - | - | 0 mm | 4.47 m/s, 25° | - | - |
| 1778175867 | 17.78° C | - | - | 0 mm | 5.36 m/s, 23° | - | - |
| 1778175568 | 17.78° C | - | - | 0 mm | 4.92 m/s, 49° | - | - |
| 1778175265 | 18.33° C | - | - | 0 mm | 4.02 m/s, 35° | - | - |
| 1778174966 | 17.78° C | - | - | 0 mm | 5.81 m/s, 58° | - | - |
| 1778174666 | 18.33° C | - | - | 0 mm | 4.47 m/s, 28° | - | - |
| 1778174364 | 17.78° C | - | - | 0 mm | 4.47 m/s, 55° | - | - |
| 1778174064 | 17.22° C | - | - | 0 mm | 4.02 m/s, 30° | - | - |
| 1778173764 | 16.67° C | - | - | 0 mm | 3.58 m/s, 1° | - | - |
| 1778173462 | 17.78° C | - | - | 0 mm | 4.92 m/s, 23° | - | - |
| 1778173163 | 17.22° C | - | - | 0 mm | 4.02 m/s, 8° | - | - |
| 1778172863 | 16.67° C | - | - | 0 mm | 3.13 m/s, 32° | - | - |
* Rain latest hour (hover to see other rain measurements)
** Current wind speed in m/s (hover to see current wind gust speed)